Orbital Elements at Epoch 2459200.5 (2020-Dec-17.0) TDB
Reference: JPL 30 (heliocentric ecliptic J2000)
Element | Value | Uncertainty (1-sigma) | Units |
e | .1447334851917278 | 3.9964e-08 | |
a | 2.779145570253651 | 1.2163e-08 | au |
q | 2.376910146015688 | 1.0939e-07 | au |
i | 6.259198529437954 | 3.5478e-06 | deg |
node | 284.8296352263739 | 3.8255e-05 | deg |
peri | 326.7191913308319 | 4.0325e-05 | deg |
M | 148.2596797287756 | 1.3875e-05 | deg |
tp | 2458503.575187395646 (2019-Jan-20.07518740) | 6.3916e-05 | TDB |
period | 1692.253301751008 4.63 | 1.1109e-05 3.041e-08 | d yr |
n | .2127341099748488 | 1.3965e-09 | deg/d |
Q | 3.181380994491613 | 1.3923e-08 | au |
|
| | Orbit Determination Parameters
Additional Information
|